STARLINK-36968

Last updated on Mon Mar 30 2026 00:02:05 GMT+0000 (Coordinated Universal Time)

1 67995U 26039K 26087.95404189 .00081637 00000+0 13808-2 0 9995 2 67995 42.9984 300.6735 0002451 267.1256 92.9323 15.50619961 4644
UTC large
Height (km)
Speed (km/s)
/
Latitude / Longitude
Inclination (degrees)
Orbital Period (minutes)
Azimuth
Elevation
Range (km)
Doppler Factor

Next 0 passes for location: London (51.5072 / 0.1276)

Sorry there are no passes over London.